Showing default

ION SCV-013, 58300

Orbit data source: Space-Track

ION SCV-013, 58300 is a payload satellite owned by D-ORBIT (IT) in SSO that was launched on Sat, 11 Nov 2023 UTC via an FALCON 9 launch vehicle from the Air Force Western Test Range (AFWTR). Payload-class satellites include a variety of spacecraft equipped with specific instruments for various scientific and technological missions. These include communications satellites like Starlink; space stations such as the ISS; scientific satellites like the Hubble; Earth observation satellites from companies like Planet Labs, Umbra, and HawkEye 360; GPS; miniature CubeSats for education and research; and military/defense satellites.

Loading next visibility...
Identifier
58300, 2023-174AW
Orbit
SSO
Country
Flag of ITIT
Related business
Manufacturer
D-ORBIT
Mission
Operational Commercial Technology
Bus & Motor
ION-SC, PM200
Mass
220 kg wet, 150 kg dry
Launch date (UTC)
2023-11-11 (3 years ago)
Launch vehicle
FALCON 9
Launch site
Air Force Western Test Range (AFWTR)
Object type
Payload
Rocket body
Debris
Shape & HBR
Box, 1.9 m
Radar Cross Section
0.240 m², Large (>1 m²)

Expand to show TLE details & history
Last TLE update: 21 hours ago

TLE from 21 hours ago
0 ION SCV-013
1 58300U 23174AW  26172.55133231  .00001660  00000-0  10902-3 0  9992
2 58300  97.6164 227.5741 0098697 180.3754 179.7415 15.05114150142190
Epoch: 2026-06-21T13:13Z
TLE epoch observation values (Epoch: 2026-06-21T13:13:55.111Z)
Latitude
-0.00005°
Longitude
119.3445°
Altitude
622.624 km
Speed
7.51 km/s
True Right ascension
15h 10m 17s
True Declination
0° 00' 00"
Sunlit
Object was in full shadow at epoch
Visualization orbit readout
Latitude
Unknown
Longitude
Unknown
Altitude
Unknown
Speed
Unknown
Apparent Right ascension
Unknown
Apparent Declination
Unknown
Sunlit
N/A
Visualization observer readout
Local Sidereal Time
21:42:48
Azimuth
Unknown
Elevation
Unknown
Doppler factor
Unknown
Orbital elements
Apogee altitude
616.51 km
Perigee altitude
479.789 km
Semi-major axis
6,926.287 km
Eccentricity
0.00987
Inclination
97.6164°
RAAN
227.5741°
Arg. of periapsis
180.3754°
True anomaly
179.74654°
Mean anomaly
179.7415°
Eccentric anomaly
179.74403°
Mean motion
3.76524 °/min
Orbital period
95.61 mins
BSTAR
0.00010902
Loading maneuver chart data...
Computing Atmospheric mass density...

Documentation

Showing up to 5 results
|